Weather History for Nashville, TN

Change the Weather History Date:

Wednesday, December 4, 2013

  Actual Average Record
Temperature  
Mean Temperature 67 °F 43 °F  
Max Temperature 76 °F 53 °F 77 °F (1998)
Min Temperature 57 °F 34 °F 10 °F (1942)
Degree Days  
Heating Degree Days 0    
Month to date heating degree days 43  
Since 1 July heating degree days 777  
Cooling Degree Days 2    
Month to date cooling degree days 2  
Year to date cooling degree days 1733  
Growing Degree Days 16 (Base 50)    
Moisture  
Dew Point 58 °F    
Average Humidity 72    
Maximum Humidity 93    
Minimum Humidity 50    
Precipitation  
Precipitation 0.00 in 0.15 in 2.38 in (1993)
Month to date precipitation T 0.61  
Year to date precipitation 46.90 43.62  
Snow  
Snow 0.00 in 0.00 in 2.50 in (1945)
Month to date snowfall 0.0 0.0  
Since 1 July snowfall 0.5 T  
Snow Depth 0.00 in    
Sea Level Pressure  
Sea Level Pressure 29.81 in    
Wind  
Wind Speed 14 mph (South)    
Max Wind Speed 25 mph    
Max Gust Speed 35 mph    
Visibility 9 miles    
Events      
T = Trace of Precipitation, MM = Missing Value Source: NWS Daily Summary

Daily Weather History Graph

Daily Weather History Graph

Search for Another Location

Airport:

Trip Planner

Search our weather history database for the weather conditions in past years. The results will help you decide how hot, cold, wet, or windy it might be!

Date:

Astronomy

Dec. 04, 2013 Rise Set
Actual Time 6:42 AM CST 4:32 PM CST
Civil Twilight 6:13 AM CST 5:00 PM CST
Nautical Twilight 5:41 AM CST 5:32 PM CST
Astronomical Twilight 5:10 AM CST 6:03 PM CST
Moon 8:10 AM CST (12/4) 6:40 PM CST (12/4)
Length of Visible Light 10h 46m
Length of Day
9h 50m
Waxing Crescent, 4% of the Moon is Illuminated
Dec 4
Waxing Crescent
Dec 9
First Quarter
Dec 17
Full
Dec 25
Last Quarter
Jan 1
New

Hourly Weather History & Observations

Time (CST) Temp. Dew Point Humidity Pressure Visibility Wind Dir Wind Speed Gust Speed Precip Events Conditions
12:53 AM 57.0 °F 55.0 °F 93% 29.79 in 5.0 mi South 10.4 mph - N/A   Overcast
1:53 AM 57.9 °F 55.0 °F 90% 29.79 in 6.0 mi South 8.1 mph - N/A   Overcast
2:53 AM 59.0 °F 55.9 °F 90% 29.81 in 6.0 mi South 9.2 mph - N/A   Overcast
3:53 AM 60.1 °F 57.0 °F 90% 29.79 in 6.0 mi SSE 9.2 mph - N/A   Overcast
4:53 AM 61.0 °F 57.9 °F 90% 29.79 in 7.0 mi South 9.2 mph - N/A   Overcast
5:53 AM 61.0 °F 57.9 °F 90% 29.80 in 9.0 mi South 9.2 mph - N/A   Overcast
6:13 AM 62.6 °F 57.2 °F 82% 29.82 in 10.0 mi South 9.2 mph - N/A   Mostly Cloudy
6:53 AM 62.1 °F 57.9 °F 86% 29.81 in 9.0 mi SSE 10.4 mph - N/A   Mostly Cloudy
7:17 AM 62.6 °F 59.0 °F 88% 29.83 in 9.0 mi South 11.5 mph - N/A   Mostly Cloudy
7:53 AM 64.0 °F 59.0 °F 84% 29.83 in 10.0 mi South 11.5 mph - N/A   Mostly Cloudy
8:53 AM 66.0 °F 59.0 °F 78% 29.84 in 10.0 mi South 11.5 mph - N/A   Mostly Cloudy
9:53 AM 69.1 °F 59.0 °F 70% 29.84 in 10.0 mi South 16.1 mph 23.0 mph N/A   Mostly Cloudy
10:53 AM 71.1 °F 57.9 °F 63% 29.81 in 10.0 mi South 16.1 mph 25.3 mph N/A   Mostly Cloudy
11:22 AM 71.6 °F 57.2 °F 60% 29.81 in 10.0 mi SSW 19.6 mph 28.8 mph N/A   Mostly Cloudy
11:53 AM 73.9 °F 55.9 °F 53% 29.79 in 10.0 mi SSW 18.4 mph 32.2 mph N/A   Mostly Cloudy
12:53 PM 75.0 °F 55.9 °F 51% 29.77 in 10.0 mi SSW 17.3 mph 32.2 mph N/A   Overcast
1:53 PM 75.0 °F 55.0 °F 50% 29.75 in 10.0 mi SSW 20.7 mph 28.8 mph N/A   Mostly Cloudy
2:53 PM 75.0 °F 55.0 °F 50% 29.76 in 10.0 mi SSW 16.1 mph 29.9 mph N/A   Mostly Cloudy
3:53 PM 73.0 °F 55.0 °F 53% 29.77 in 10.0 mi South 13.8 mph 25.3 mph N/A   Mostly Cloudy
4:53 PM 71.1 °F 55.0 °F 57% 29.79 in 10.0 mi South 13.8 mph - N/A   Mostly Cloudy
5:53 PM 70.0 °F 57.0 °F 63% 29.81 in 10.0 mi South 17.3 mph - N/A   Mostly Cloudy
6:53 PM 69.1 °F 57.9 °F 68% 29.81 in 10.0 mi South 18.4 mph 26.5 mph N/A   Mostly Cloudy
7:53 PM 69.1 °F 60.1 °F 73% 29.83 in 10.0 mi South 19.6 mph 27.6 mph N/A   Overcast
8:53 PM 69.1 °F 60.1 °F 73% 29.83 in 10.0 mi South 19.6 mph 28.8 mph N/A   Mostly Cloudy
9:53 PM 69.1 °F 61.0 °F 75% 29.85 in 10.0 mi South 18.4 mph - N/A   Mostly Cloudy
10:53 PM 69.1 °F 61.0 °F 75% 29.86 in 10.0 mi South 13.8 mph - N/A   Mostly Cloudy
11:53 PM 68.0 °F 61.0 °F 78% 29.87 in 10.0 mi SSW 10.4 mph 16.1 mph N/A   Mostly Cloudy